This demonstration page uses our WeatherBlox Daily Observations layout. Learn more.

Hourly Observations for July 4, 2017

Temp ( °F °C ) Dew Point ( °F °C ) Humidity (%) Winds ( mph kmh ) Pressure ( in mb ) Visibility ( mi km ) Precip ( " mm )
12:36 am 00:36 Clear with Mist and Fog 70 21.1 66 18.9 87 87 SE 7 11 29.97 1015 2 3.21868 0 0
12:43 am 00:43 Clear with Mist and Fog 70 21.1 66 18.9 87 87 ESE 7 11 29.97 1015 1.75 2.816345 0 0
12:51 am 00:51 Clear with Mist and Fog 70 21 66 19 88 88 SE 7 11 29.97 1015 2 3.21868 0 0
12:54 am 00:54 Clear with Mist and Fog 70 21.1 66 18.9 87 87 SE 7 11 29.97 1015 2.5 4.02335 0 0
1:06 am 01:06 Hazy 71 21.7 65 18.3 81 81 SE 8 13 29.97 1015 4 6.43736 0 0
1:54 am 01:54 Clear 71 21.7 64 17.8 79 79 SW 3 6 29.97 1015 9 14.48406 0 0
2:54 am 02:54 Clear 69 20.6 65 18.3 87 87 SSE 5 7 29.97 1015 8 12.87472 0 0
3:54 am 03:54 Clear 68 20 65 18.3 90 90 S 5 7 29.96 1014 10 16.0934 0 0
4:54 am 04:54 Clear 69 20.6 66 18.9 90 90 Calm 29.96 1015 10 16.0934 0 0
5:54 am 05:54 Clear with Mist and Fog 67 19.4 64 17.8 91 91 Calm 29.96 1015 5 8.0467 0 0
6:54 am 06:54 Sunny with Mist and Fog 68 20 65 18.3 90 90 Calm 29.96 1015 5 8.0467 0 0
7:54 am 07:54 Sunny 72 22.2 68 20 87 87 SE 3 6 29.97 1015 10 16.0934 0 0
8:54 am 08:54 Sunny 78 25.6 70 21.1 76 76 SE 10 17 29.98 1015 10 16.0934 0 0
9:54 am 09:54 Sunny 80 26.7 71 21.7 74 74 S 9 15 29.99 1016 10 16.0934 0 0
10:54 am 10:54 Sunny 82 27.8 71 21.7 69 69 SE 9 15 29.99 1016 10 16.0934 0 0
11:54 am 11:54 Partly Cloudy 84 28.9 71 21.7 65 65 SSE 9 15 29.99 1016 10 16.0934 0 0
12:54 pm 12:54 Mostly Cloudy 85 29.4 69 20.6 59 59 SE 9 15 29.98 1015 10 16.0934 0 0
1:54 pm 13:54 Sunny 86 30 69 20.6 57 57 ESE 7 11 29.98 1015 10 16.0934 0 0
2:23 pm 14:23 Mostly Cloudy 79 26.1 65 18.3 62 62 SSE 23 37 29.97 1015 10 16.0934 0 0
2:54 pm 14:54 Mostly Cloudy with Light Rain 75 23.9 64 17.8 69 69 S 12 19 30.01 1016 10 16.0934 0 0.0254
3:54 pm 15:54 Sunny 74 23.3 64 17.8 71 71 SSW 8 13 29.99 1016 10 16.0934 0 0.0254
4:54 pm 16:54 Sunny 78 25.6 67 19.4 69 69 S 5 7 29.98 1015 10 16.0934 0 0
5:54 pm 17:54 Sunny 78 25.6 68 20 71 71 Calm 29.98 1015 10 16.0934 0 0
6:54 pm 18:54 Sunny 79 26.1 69 20.6 72 72 ESE 6 9 29.97 1015 10 16.0934 0 0
7:54 pm 19:54 Sunny 80 26.7 68 20 67 67 SE 10 17 29.99 1016 10 16.0934 0 0
8:54 pm 20:54 Sunny 78 25.6 68 20 71 71 ESE 7 11 30 1016 10 16.0934 0 0
9:54 pm 21:54 Clear 75 23.9 68 20 79 79 ESE 5 7 30.02 1017 10 16.0934 0 0
10:29 pm 22:29 Hazy 74 23.3 68 20 82 82 ESE 5 7 30.03 1017 2 3.21868 0 0
10:36 pm 22:36 Hazy 74 23.3 68 20 82 82 ESE 5 7 30.03 1017 1.5 2.41401 0 0
10:54 pm 22:54 Hazy 74 23.3 68 20 82 82 S 3 6 30.03 1017 2.5 4.02335 0 0
11:13 pm 23:13 Hazy 74 23.3 67 19.4 79 79 SSE 5 7 30.03 1017 1.75 2.816345 0 0
11:54 pm 23:54 Clear with Mist and Fog 70 21.1 66 18.9 87 87 SSE 6 9 30.04 1017 1.5 2.41401 0 0

Powered by AerisWeather